Location: Siratepeler Tepesi
(39.1042°N, 32.0781°E)
Time: 13:22:23
(UTC+00:00)

Cosmos 2366 rocket - Pass Details

Date: 11 April 2026
Orbit: 954 x 996 km, 82.9° (Epoch: 13 May)

Event Time Altitude Azimuth Distance (km) Brightness Sun altitude
Exits shadow 17:55:28 24° 140° (SE) 1,873 5.0 -17.4°
Maximum altitude 17:58:30 39° 89° (E) 1,398 4.4 -17.9°
Drops below altitude 10° 18:04:09 10° 23° (NNE) 2,695 6.4 -18.8°
Sets 18:06:47 0° 16° (NNE) 3,642 7.2 -19.3°
